Regional Weather Roundup
Issued by NWS Charleston, WV

Home | Current Version | Previous Version | Graphics & Text | Print | Product List | Glossary On
Versions: 1 2 3 4 5 6 7 8 9 10 11 12 13 14 15 16 17 18 19 20 21 22 23 24 25 26 27 28 29 30 31 32 33 34 35 36 37 38 39 40 41 42 43 44 45 46 47 48 49 50
000
ASUS41 KRLX 052310
RWRRLX
West Virginia Regional Weather Roundup
National Weather Service Charleston WV
700 PM EDT THU MAY 05 2016

Note: "fair" indicates few or no clouds below 12,000 feet with no
significant weather and/or obstructions to visibility.

WVZ003-060000-
Northern Panhandle of West Virginia

CITY           SKY/WX    TMP DP  RH WIND       PRES   REMARKS
WHEELING       LGT RAIN  52  47  83 N7        29.73R
$$

WVZ009-060000-
Northwest West Virginia

CITY           SKY/WX    TMP DP  RH WIND       PRES   REMARKS
PARKERSBURG    RAIN      53  49  86 N9G17     29.76R
$$

WVZ006-060000-
Western West Virginia

CITY           SKY/WX    TMP DP  RH WIND       PRES   REMARKS
HUNTINGTON     CLOUDY    54  44  69 W9        29.78S
$$

WVZ015-060000-
West Central West Virginia

CITY           SKY/WX    TMP DP  RH WIND       PRES   REMARKS
CHARLESTON     CLOUDY    50  46  86 W7        29.74S
$$

WVZ022-031-060000-
North Central West Virginia

CITY           SKY/WX    TMP DP  RH WIND       PRES   REMARKS
CLARKSBURG     LGT RAIN  52  50  93 N5        29.69S
MORGANTOWN     PTSUNNY   53  47  79 N5        29.70R
$$

WVZ025-035-042-045-060000-
Southern West Virginia

CITY           SKY/WX    TMP DP  RH WIND       PRES   REMARKS
BECKLEY        LGT RAIN  42  40  92 W6        29.73R FOG
LOGAN          NOT AVBL
BLUEFIELD      LGT RAIN  38  36  92 W10       29.74S
LEWISBURG      CLOUDY    46  40  81 NW6       29.70R
$$

WVZ047-060000-
Northern Mountains of West Virginia

CITY           SKY/WX    TMP DP  RH WIND       PRES   REMARKS
ELKINS         HVY RAIN  49  45  86 CALM      29.69R FOG
$$

WVZ052-060000-
Eastern Panhandle of West Virginia

CITY           SKY/WX    TMP DP  RH WIND       PRES   REMARKS
MARTINSBURG    CLOUDY    56  46  69 N10       29.64S
PETERSBURG     CLOUDY    59  48  68 CALM      29.66R
$$



USA.gov is the U.S. government's official web portal to all federal, state and local government web resources and services.